AKDT,Max TemperatureF,Mean TemperatureF,Min TemperatureF,Max Dew PointF,MeanDew PointF,Min DewpointF,Max Humidity, Mean Humidity, Min Humidity, Max Sea Level PressureIn, Mean Sea Level PressureIn, Min Sea Level PressureIn, Max VisibilityMiles, Mean VisibilityMiles, Min VisibilityMiles, Max Wind SpeedMPH, Mean Wind SpeedMPH, Max Gust SpeedMPH,PrecipitationIn, CloudCover, Events, WindDirDegrees
2012-8-1,58,54,50,52,50,45,0,0,0,29.79,29.67,29.60,10,9,5,16,9,20,0.12,8,Rain,150
2012-8-2,63,55,47,51,46,42,0,0,0,29.99,29.86,29.72,10,10,10,13,5,15,0.00,6,Rain,275
2012-8-3,59,53,46,49,46,43,0,0,0,30.18,30.12,30.00,10,10,10,13,6,16,0.00,5,,353
2012-8-4,52,50,47,49,47,45,0,0,0,30.13,29.99,29.85,10,9,6,12,4,100,0.11,8,Rain,76
2012-8-5,51,50,48,49,47,46,0,0,0,29.86,29.83,29.80,10,6,3,15,6,21,0.38,8,Rain,347
2012-8-6,59,56,52,52,48,45,0,0,0,29.91,29.84,29.79,10,10,4,16,10,21,0.01,8,Rain,310
2012-8-7,55,53,50,52,50,47,0,0,0,29.94,29.92,29.91,10,9,5,14,6,20,0.02,8,Rain,354
2012-8-8,56,53,50,51,49,47,0,0,0,29.91,29.88,29.84,10,9,2,7,3,9,0.03,7,Rain,53
2012-8-9,56,53,50,52,49,48,0,0,0,30.06,30.00,29.90,10,5,0,9,3,12,T,7,Fog-Rain,101
2012-8-10,57,54,50,52,50,48,0,0,0,30.10,30.08,30.06,10,9,2,16,7,20,0.03,7,Rain,48
2012-8-11,55,54,52,52,51,49,0,0,0,30.09,30.07,30.05,10,5,2,13,7,17,0.09,8,Rain,9
2012-8-12,54,53,52,53,52,51,0,0,0,30.06,29.99,29.96,10,4,0,20,9,25,0.03,8,Fog-Rain,34
2012-8-13,55,54,52,52,51,50,0,0,0,30.09,30.05,30.00,10,8,2,15,9,18,0.04,8,Rain,45
2012-8-14,53,52,51,52,51,49,0,0,0,30.08,30.02,29.97,10,3,0,20,11,24,0.31,8,Fog-Rain,57
2012-8-15,56,54,51,52,50,46,0,0,0,30.09,30.05,30.01,10,6,0,14,5,17,0.02,8,Fog-Rain,85
2012-8-16,53,52,50,52,50,48,0,0,0,30.06,30.00,29.95,10,6,0,10,4,13,0.02,8,Fog-Rain,71
2012-8-17,59,54,49,52,50,46,0,0,0,29.95,29.90,29.88,10,10,4,9,3,12,0.01,7,Rain,345
2012-8-18,54,48,41,49,46,41,0,0,0,29.90,29.87,29.84,10,8,0,15,6,18,0.00,7,Fog-Rain,176
2012-8-19,57,55,52,52,51,48,0,0,0,29.84,29.82,29.80,10,10,8,12,7,15,0.00,8,Rain,136
2012-8-20,55,53,51,52,47,41,0,0,0,30.01,29.90,29.83,10,10,10,13,4,16,T,7,Rain,299
2012-8-21,63,54,44,46,42,41,0,0,0,30.12,30.08,30.02,10,10,9,15,6,20,0.00,2,,287
2012-8-22,55,48,40,52,46,39,0,0,0,30.06,29.90,29.67,10,9,3,9,5,10,0.00,7,Rain,184
2012-8-23,58,55,51,52,48,44,0,0,0,29.83,29.67,29.61,10,10,5,22,8,28,0.05,7,Rain,289
2012-8-24,62,57,51,51,48,46,0,0,0,30.04,29.97,29.84,10,10,10,20,10,25,T,6,Rain,308
2012-8-25,59,52,45,51,48,43,0,0,0,30.09,30.07,30.04,10,10,1,8,2,10,0.00,5,,37
2012-8-26,62,56,50,58,53,48,96,82,59,30.08,29.96,29.84,10,10,10,7,3,8,T,6,Rain,326
2012-8-27,68,62,55,57,45,34,0,0,0,30.00,29.88,29.79,10,10,6,32,13,44,0.00,4,,294
2012-8-28,67,60,53,44,39,35,77,46,24,30.11,30.09,30.01,10,10,10,24,13,32,0.00,2,,292
2012-8-29,60,52,44,50,45,41,0,0,0,30.11,30.03,29.92,10,10,10,8,4,9,0.00,3,,281
2012-8-30,59,55,51,54,51,47,0,0,0,29.91,29.74,29.64,10,9,2,15,6,17,0.44,7,Rain,128
2012-8-31,56,52,47,50,48,46,0,0,0,29.76,29.71,29.64,10,9,2,14,7,21,T,7,Rain,292